Home   Weather   Northampton   Past weeks
Flag for United Kingdom

Past Weather in Northampton, England, United Kingdom — Yesterday and Last 2 Weeks

Now
39 °F

Passing clouds.


Feels Like: 30 °F
Forecast: 43 / 32 °F
Wind: 18 mph from North

Location: Wittering

Current Time: Mar 29, 2020 at 5:17:02 am

Latest Report: Mar 29, 2020 at 3:50 am


Visibility: N/A

Pressure: 30.60 "Hg

Humidity: 61%

Dew Point: 27 °F

Location of NorthamptonLocation

Past Weather in Northampton — Graph

°F

Northampton Temperature Yesterday

Maximum temperature yesterday: 50 °F (at 11:50 am)
Minimum temperature yesterday: 37 °F (at 10:50 pm)
Average temperature yesterday: 42 °F

High & Low Weather Summary for the Past Weeks

 TemperatureHumidityPressure
High59 °F (Mar 24, 2:27 pm)100% (Mar 14, 2:50 am)30.60 "Hg (Mar 14, 2:50 am)
Low28 °F (Mar 25, 4:50 am)27% (Mar 25, 2:50 pm)29.59 "Hg (Mar 15, 6:50 am)
Average44 °F76%30.22 "Hg
* Reported Mar 14 2:50 am — Mar 29 3:50 am, Northampton. Weather by CustomWeather, © 2020

Note: Actual official high and low records may vary slightly from our data, if they occured in-between our weather recording intervals... More about our weather records

Northampton Weather History for the Previous 24 Hours

Scroll right to see more
 ConditionsComfort  
Time TempWeatherWind HumidityBarometerVisibility
3:50 am
Sun, Mar 29
39 °FPassing clouds.18 mph61%30.60 "HgN/A
2:50 am37 °FPassing clouds.20 mph70%30.60 "HgN/A
12:50 am37 °FPassing clouds.15 mph75%30.60 "HgN/A
11:50 pm
Sat, Mar 28
37 °FPassing clouds.20 mph81%30.60 "HgN/A
10:50 pm37 °FPassing clouds.13 mph81%30.60 "HgN/A
9:50 pm39 °FPassing clouds.16 mph75%30.57 "HgN/A
8:50 pm39 °FPassing clouds.16 mph75%30.57 "HgN/A
7:50 pm39 °FPassing clouds.17 mph75%30.54 "HgN/A
6:50 pm41 °FPassing clouds.18 mph70%30.54 "HgN/A
5:50 pm45 °FPartly sunny.24 mph61%30.51 "HgN/A
4:50 pm45 °FPartly sunny.22 mph57%30.48 "HgN/A
3:50 pm46 °FPartly sunny.20 mph62%30.48 "HgN/A
2:50 pm48 °FPartly sunny.21 mph58%30.45 "HgN/A
1:50 pm48 °FPartly sunny.24 mph58%30.45 "HgN/A
12:50 pm48 °FPartly sunny.23 mph62%30.45 "HgN/A
11:50 am50 °FPartly sunny.23 mph62%30.45 "HgN/A
10:50 am46 °FPartly sunny.21 mph71%30.45 "HgN/A
9:50 am45 °FPartly sunny.23 mph76%30.42 "HgN/A
8:50 am45 °FBroken clouds.23 mph76%30.42 "HgN/A
7:50 am43 °FBroken clouds.20 mph87%30.39 "HgN/A
6:50 am43 °FBroken clouds.16 mph87%30.39 "Hg6 mi
5:50 am39 °FPartly sunny.17 mph93%30.36 "Hg4 mi
Weather by CustomWeather, © 2020

See weather overview

Advertising